Regional Weather Roundup
Issued by NWS

Home | Current Version | Previous Version | Graphics & Text | Print | Product List | Glossary Off
Versions: 1 2 3 4 5 6 7 8 9 10 11 12 13 14 15 16 17 18 19 20 21 22 23 24 25 26 27 28 29 30 31 32 33 34 35 36 37 38 39 40 41 42 43 44 45 46 47 48 49 50

000
ASUS43 KDMX 290707
RWRIA

WEATHER ROUNDUP FOR IOWA
NATIONAL WEATHER SERVICE DES MOINES IA
100 AM CST THU JAN 29 2015

NOTE: "FAIR" INDICATES FEW OR NO CLOUDS BELOW 12,000 FEET WITH NO
SIGNIFICANT WEATHER AND/OR OBSTRUCTIONS TO VISIBILITY.

* - THESE STATIONS ARE NOT NWS STATIONS...THUS NOT UNDER NWS
QUALITY CONTROL.  THEY ALSO DO NOT REPORT WEATHER SUCH
AS PRECIPITATION OR FOG.

IAZ001>003-012>014-020>022-031>034-043>046-290800-
   NORTHWEST IOWA

CITY           SKY/WX    TMP DP  RH WIND       PRES   REMARKS
CARROLL *      CLOUDY    36  34  93 N31G39    29.92R WCI  22
CHEROKEE *     CLOUDY    36  32  87 N17G25    29.99R WCI  25
DENISON *      CLOUDY    36  36 100 NW24G32   29.95R FOG     WCI  24
LE MARS *      CLOUDY    36  32  87 NW18G32   30.04R WCI  25
ORANGE CITY *  CLOUDY    36  30  80 NW18G26   30.01R WCI  25
SHELDON *      CLOUDY    34  34 100 N25G35    29.97R WCI  21
SIOUX CITY     CLOUDY    36  30  79 NW24G41   30.03R WCI  24
SPENCER        CLOUDY    34  30  85 N24G36    29.95R WCI  21
STORM LAKE *   CLOUDY    34  32  93 N25G33    29.95R WCI  21
$$

IAZ055>058-069>071-079>083-090>094-290800-
   SOUTHWEST IOWA

CITY           SKY/WX    TMP DP  RH WIND       PRES   REMARKS
ATLANTIC *     CLOUDY    39  36  87 NW23G36   29.92R WCI  29
AUDUBON *      PTCLDY    37  34  87 N21G29    29.94R WCI  27
CLARINDA *     CLOUDY    43  36  75 N25G37    29.95R
COUNCIL BLFS * CLOUDY    37  34  87 NW30G39   29.97R WCI  25
CRESTON *      CLOUDY    37  36  93 NW32G45   29.87R WCI  25
HARLAN  *      MIX PCPN  36  36 100 NW29G43   29.98R WCI  23
LAMONI         CLOUDY    38  33  82 NW23G46   29.85R WCI  27
RED OAK *      CLOUDY    41  36  81 NW24G35   29.94R
SHENANDOAH *   CLOUDY    43  36  75 N24G43    29.96R
$$

IAZ047>049-059>061-072>074-084-290800-
   CENTRAL IOWA

CITY           SKY/WX    TMP DP  RH WIND       PRES   REMARKS
AMES           CLOUDY    35  30  82 N25G39    29.84R WCI  23
ANKENY *       CLOUDY    36  32  87 NW28G40   29.84R WCI  23
CHARITON *     MIX PCPN  37  32  81 NW28G39   29.82R WCI  25
DES MOINES     CLOUDY    37  30  75 N28G37    29.83R WCI  25
GRINNELL*      CLOUDY    34  32  93 NW16      29.76R FOG     WCI  23
KNOXVILLE *    CLOUDY    36  34  93 NW25G38   29.78R FOG     WCI  23
MARSHALLTOWN   CLOUDY    33  32  96 NW16      29.78R FOG     WCI  23
PELLA *        CLOUDY    36  34  93 NW21G26   29.79R WCI  24
PERRY *          N/A     36  34  93 N25G36    29.88R WCI  23
$$

IAZ004>006-015-016-023>025-035-036-290800-
   NORTH CENTRAL IOWA

CITY           SKY/WX    TMP DP  RH WIND       PRES   REMARKS
ALGONA *       CLOUDY    34  34 100 NW20      29.90R FOG     WCI  22
CLARION *      CLOUDY    34  34 100 NW20G30   29.86R FOG     WCI  22
ESTHERVILLE    CLOUDY    33  31  92 N23G32    29.92R WCI  21
FORT DODGE *   CLOUDY    34  28  80 NW15G24   29.89R WCI  24
MASON CITY     CLOUDY    33  31  92 N21G31    29.84R FOG     WCI  21
FOREST CITY *  CLOUDY    32  32 100 N21G26    29.85R FOG     WCI  20
IOWA FALLS *   CLOUDY    34  32  93 NW23      29.82R FOG     WCI  22
$$

IAZ007>011-017>019-026>030-037>042-050>054-066-290800-
   NORTHEAST IOWA

CITY           SKY/WX    TMP DP  RH WIND       PRES   REMARKS
CEDAR RAPIDS   PTCLDY    30  30 100 NW9       29.70R FOG     WCI  22
CHARLES CITY * CLOUDY    32  32 100 N14       29.81R FOG     WCI  22
CLINTON *      PTCLDY    30  27  86 E8        29.72S WCI  23
DECORAH *      CLOUDY    30  30 100 N7        29.77S FOG     WCI  23
DUBUQUE        CLOUDY    30  28  92 N7        29.72R FOG     WCI  23
MONTICELLO *   CLOUDY    30  32 100 N7        29.72R WCI  23
OELWEIN *      CLOUDY    32  32 100 N12       29.76R FOG     WCI  23
WATERLOO       CLOUDY    33  32  96 NW12      29.78R FOG     WCI  24
$$

IAZ064-065-067-068-078-290800-
   EAST CENTRAL IOWA

CITY           SKY/WX    TMP DP  RH WIND       PRES   REMARKS
DAVENPORT      MOCLDY    36  30  79 S5        29.68F WCI  32
IOWA CITY      CLEAR     33  31  92 N8        29.71R WCI  26
MT. PLEASANT * CLEAR     36  32  87 SW6       29.67R WCI  31
MUSCATINE *    CLEAR     36  32  87 CALM      29.68R
QUAD CITIES    MOCLDY    38  31  76 CALM      29.66F
$$

IAZ062-063-075>077-085>089-095>099-290800-
   SOUTHEAST IOWA

CITY           SKY/WX    TMP DP  RH WIND       PRES   REMARKS
BURLINGTON     PTCLDY    40  34  79 S10       29.65F WCI  33
FAIRFIELD *    PTCLDY    37  32  81 W13G18    29.69R WCI  29
FORT MADISON * CLEAR     39  34  81 SW8       29.67R WCI  34
KEOKUK *       CLEAR     43  36  75 SW12      29.67R
OSKALOOSA *      N/A     32  32 100 NW14      29.74R FOG     WCI  22
CENTERVILLE *  PTCLDY    39  37  93 W28G33    29.79R WCI  28
OTTUMWA        PTCLDY    33  31  92 NW13      29.73R WCI  24
WASHINGTON *   CLEAR     32  32 100 NW7       29.68R WCI  26
$$

ABBREVIATIONS USED IN REMARKS
   TC - TEMPERATURES IN CELSIUS
  WCI - WIND CHILL INDEX
   HX - HEAT INDEX
  VSB - VISIBILITY
$$



USA.gov is the U.S. government's official web portal to all federal, state and local government web resources and services.